Date String (YYYY-MM-DD hh:mm:ss) UTC,Instrument flags,Ambient pressure (hPa),Sample flow (lpm),Bypass flow (lpm),Sample temperature (°C),Ambient temperature (°C),ASC tube jacket temperature (°C),LED temperature (°C),Box temperature (°C),Sample RH (%),Span deviation,Mass concentration (μg/m³),Mass concentration (μg/m³),Mass concentration (μg/m³)
DateTimeUTC,F1_M11,P_M11,Q1_M11,Q2_M11,T1_M11,T2_M11,T3_M11,T4_M11,T5_M11,U1_M11,ZSPAN_M11,X0_M11,X2_M11,X1_M11
2023-05-20 12:00:00,,0836.8,5.00,0.00,28.3,26.7,00.0,36.6,29.9,25.9,0002.6,0104.01,0076.96,0073.12
2023-05-20 12:01:00,,0836.7,5.00,0.00,28.3,26.7,00.0,36.6,29.9,25.9,0002.6,0105.14,0077.55,0073.61
2023-05-20 12:02:00,,0836.7,5.00,0.00,28.3,26.7,00.0,36.6,29.9,26.0,0002.6,0105.65,0078.05,0074.10
2023-05-20 12:03:00,,0836.7,5.00,0.00,28.3,26.7,00.0,36.6,29.9,26.0,0002.6,0107.07,0078.55,0074.55
2023-05-20 12:04:00,,0836.7,5.01,0.00,28.3,26.7,00.0,36.6,29.9,26.0,0002.6,0108.52,0079.17,0075.08
2023-05-20 12:05:00,,0836.7,5.00,0.00,28.3,26.7,00.0,36.6,29.9,26.0,0002.6,0109.73,0079.69,0075.57
2023-05-20 12:06:00,,0836.7,5.01,0.00,28.3,26.7,00.0,36.6,29.9,26.0,0002.6,0110.86,0080.01,0075.89
2023-05-20 12:07:00,,0836.7,5.00,0.00,28.3,26.7,00.0,36.6,29.9,26.0,0002.7,0110.99,0080.27,0076.11
2023-05-20 12:08:00,,0836.7,4.99,0.00,28.3,26.6,00.0,36.6,29.9,26.0,0002.7,0111.55,0080.38,0076.18
2023-05-20 12:09:00,,0836.7,5.00,0.00,28.3,26.6,00.0,36.6,29.9,26.1,0002.7,0111.49,0080.21,0075.94
2023-05-20 12:10:00,,0836.7,5.00,0.00,28.2,26.6,00.0,36.6,29.9,26.1,0002.6,0111.67,0080.32,0075.98
2023-05-20 12:11:00,,0836.7,5.01,0.00,28.2,26.6,00.0,36.6,29.9,26.2,0002.6,0111.05,0079.91,0075.58
2023-05-20 12:12:00,,0836.7,4.99,0.00,28.2,26.6,00.0,36.6,29.9,26.1,0002.5,0109.52,0079.05,0074.89
2023-05-20 12:13:00,,0836.6,4.99,0.00,28.2,26.6,00.0,36.6,29.9,26.1,0002.4,0107.96,0077.97,0073.83
2023-05-20 12:14:00,,0836.7,5.01,0.00,28.2,26.6,00.0,36.6,29.9,26.1,0002.3,0106.61,0077.18,0073.04
2023-05-20 12:15:00,,0836.7,5.00,0.00,28.2,26.6,00.0,36.6,29.9,26.1,0002.3,0104.68,0076.30,0072.27
2023-05-20 12:16:00,,0836.7,5.00,0.00,28.2,26.6,00.0,36.6,29.8,26.1,0002.3,0102.36,0075.34,0071.41
2023-05-20 12:17:00,,0836.6,4.99,0.00,28.2,26.6,00.0,36.6,29.9,26.1,0002.3,0100.09,0074.37,0070.55
2023-05-20 12:18:00,,0836.7,5.00,0.00,28.2,26.6,00.0,36.6,29.8,26.1,0002.3,0098.60,0073.44,0069.72
2023-05-20 12:19:00,,0836.7,5.01,0.00,28.2,26.6,00.0,36.6,29.8,26.1,0002.3,0097.15,0072.71,0069.07
2023-05-20 12:20:00,,0836.7,4.99,0.00,28.2,26.6,00.0,36.6,29.8,26.2,0002.3,0095.95,0071.99,0068.40
2023-05-20 12:21:00,,0836.7,4.99,0.00,28.2,26.6,00.0,36.6,29.9,26.2,0002.3,0095.23,0071.47,0067.89
2023-05-20 12:22:00,,0836.7,5.01,0.00,28.2,26.6,00.0,36.6,29.8,26.3,0002.4,0094.97,0071.30,0067.69
2023-05-20 12:23:00,,0836.8,5.01,0.00,28.2,26.6,00.0,36.6,29.9,26.4,0002.6,0095.76,0071.76,0068.08
2023-05-20 12:24:00,,0836.8,5.00,0.00,28.2,26.6,00.0,36.6,29.9,26.4,0002.6,0097.08,0072.63,0068.90
2023-05-20 12:25:00,,0836.8,4.99,0.00,28.2,26.6,00.0,36.6,29.9,26.4,0002.6,0097.80,0073.37,0069.66
2023-05-20 12:26:00,,0836.8,4.99,0.00,28.2,26.6,00.0,36.6,29.8,26.2,0002.7,0098.60,0073.76,0070.06
2023-05-20 12:27:00,,0836.8,4.99,0.00,28.2,26.6,00.0,36.6,29.8,26.0,0002.7,0098.63,0073.81,0070.11
2023-05-20 12:28:00,,0836.8,5.00,0.00,28.2,26.6,00.0,36.6,29.8,25.9,0002.6,0099.15,0073.90,0070.18
2023-05-20 12:29:00,,0836.8,5.01,0.00,28.2,26.6,00.0,36.6,29.8,25.8,0002.6,0099.29,0073.80,0070.06
2023-05-20 12:30:00,,0836.8,5.01,0.00,28.2,26.6,00.0,36.6,29.8,25.8,0002.6,0098.97,0073.57,0069.89
2023-05-20 12:31:00,,0836.8,5.00,0.00,28.2,26.5,00.0,36.6,29.8,25.8,0002.5,0098.70,0073.35,0069.70
2023-05-20 12:32:00,,0836.8,5.00,0.00,28.2,26.5,00.0,36.6,29.8,25.6,0002.5,0097.88,0072.69,0069.19
2023-05-20 12:33:00,,0836.8,4.99,0.00,28.2,26.5,00.0,36.5,29.8,25.1,0002.5,0096.03,0071.25,0067.91
2023-05-20 12:34:00,,0836.8,4.99,0.00,28.2,26.5,00.0,36.5,29.8,24.6,0002.4,0092.56,0068.92,0065.84
2023-05-20 12:35:00,,0836.8,5.01,0.00,28.2,26.5,00.0,36.5,29.8,24.4,0002.4,0088.94,0066.44,0063.54
2023-05-20 12:36:00,,0836.8,5.00,0.00,28.1,26.5,00.0,36.5,29.7,24.1,0002.4,0084.72,0063.55,0060.77
2023-05-20 12:37:00,,0836.8,5.01,0.00,28.1,26.4,00.0,36.5,29.7,24.0,0002.5,0080.89,0061.03,0058.42
2023-05-20 12:38:00,,0836.8,5.00,0.00,28.1,26.4,00.0,36.5,29.7,24.0,0002.5,0077.97,0058.97,0056.49
2023-05-20 12:39:00,,0836.8,4.98,0.00,28.1,26.4,00.0,36.5,29.7,23.8,0002.5,0074.67,0056.79,0054.47
2023-05-20 12:40:00,,0836.8,5.00,0.00,28.1,26.4,00.0,36.5,29.7,23.8,0002.7,0071.90,0055.01,0052.72
2023-05-20 12:41:00,,0836.8,5.01,0.00,28.1,26.4,00.0,36.5,29.7,23.9,0002.8,0069.71,0053.46,0051.23
2023-05-20 12:42:00,,0836.8,5.01,0.00,28.1,26.4,00.0,36.5,29.7,23.9,0002.9,0066.84,0051.49,0049.44
2023-05-20 12:43:00,,0836.9,5.01,0.00,28.1,26.4,00.0,36.5,29.7,23.9,0003.0,0064.32,0049.76,0047.77
2023-05-20 12:44:00,,0836.8,4.99,0.00,28.1,26.4,00.0,36.5,29.7,24.1,0003.0,0062.45,0048.66,0046.69
2023-05-20 12:45:00,,0836.9,4.99,0.00,28.1,26.4,00.0,36.5,29.6,24.2,0003.0,0061.85,0048.06,0046.11
2023-05-20 12:46:00,,0836.9,5.00,0.00,28.1,26.4,00.0,36.5,29.7,24.0,0003.1,0061.33,0047.61,0045.68
2023-05-20 12:47:00,,0836.9,5.02,0.00,28.1,26.4,00.0,36.5,29.7,24.0,0003.1,0061.12,0047.45,0045.52
2023-05-20 12:48:00,,0836.9,5.02,0.00,28.1,26.4,00.0,36.5,29.7,24.0,0003.1,0060.67,0047.16,0045.26
2023-05-20 12:49:00,,0836.9,5.00,0.00,28.1,26.4,00.0,36.5,29.7,24.2,0003.2,0060.05,0046.71,0044.83
2023-05-20 12:50:00,,0836.9,4.99,0.00,28.1,26.4,00.0,36.4,29.7,24.7,0003.3,0059.80,0046.47,0044.56
2023-05-20 12:51:00,,0836.9,5.00,0.00,28.1,26.4,00.0,36.4,29.7,24.8,0003.2,0059.32,0046.13,0044.28
2023-05-20 12:52:00,,0836.9,5.00,0.00,28.1,26.4,00.0,36.4,29.7,24.6,0003.2,0058.49,0045.53,0043.72
2023-05-20 12:53:00,,0837.0,5.00,0.00,28.1,26.4,00.0,36.4,29.7,25.2,0003.3,0057.81,0045.05,0043.26
2023-05-20 12:54:00,,0837.0,4.99,0.00,28.1,26.4,00.0,36.4,29.7,25.4,0003.3,0057.11,0044.58,0042.83
2023-05-20 12:55:00,,0836.9,5.00,0.00,28.1,26.4,00.0,36.4,29.7,25.4,0003.3,0056.32,0043.99,0042.26
2023-05-20 12:56:00,,0837.0,5.00,0.00,28.1,26.4,00.0,36.4,29.7,25.7,0003.4,0055.35,0043.46,0041.78
2023-05-20 12:57:00,,0837.0,5.00,0.00,28.1,26.4,00.0,36.4,29.7,25.8,0003.4,0054.59,0042.99,0041.33
2023-05-20 12:58:00,,0837.0,5.00,0.00,28.0,26.4,00.0,36.4,29.7,25.7,0003.3,0054.46,0042.88,0041.20
2023-05-20 12:59:00,,0836.9,5.00,0.00,28.0,26.4,00.0,36.4,29.7,26.0,0003.3,0054.89,0043.14,0041.43
